www.pogodaiklimat.ru
ПОГОДА в Задаре
Время
(UTC), дата
07 29.11
08 29.11
09 29.11
10 29.11
11 29.11
12 29.11
13 29.11
14 29.11
15 29.11
16 29.11
17 29.11
18 29.11
19 29.11
20 29.11
21 29.11
00 30.11
03 30.11
04 30.11
05 30.11
06 30.11
07 30.11
08 30.11
09 30.11
10 30.11
11 30.11
12 30.11
13 30.11
14 30.11
15 30.11
16 30.11
17 30.11
18 30.11
19 30.11
20 30.11
21 30.11
00 1.12
03 1.12
04 1.12
05 1.12
06 1.12
07 1.12
08 1.12
09 1.12
10 1.12
11 1.12
12 1.12
13 1.12
14 1.12
15 1.12
16 1.12
17 1.12
18 1.12
19 1.12
20 1.12
21 1.12
00 2.12
03 2.12
04 2.12
05 2.12
06 2.12
07 2.12
08 2.12
09 2.12
10 2.12
11 2.12
12 2.12
13 2.12
14 2.12
15 2.12
16 2.12
17 2.12
18 2.12
19 2.12
20 2.12
21 2.12
00 3.12
03 3.12
04 3.12
05 3.12
06 3.12
07 3.12
08 3.12
09 3.12
10 3.12
11 3.12
12 3.12
13 3.12
14 3.12
15 3.12
16 3.12
17 3.12
18 3.12
19 3.12
20 3.12
21 3.12
00 4.12
03 4.12
04 4.12
05 4.12
06 4.12
07 4.12
08 4.12
09 4.12
10 4.12
11 4.12
12 4.12
13 4.12
14 4.12
15 4.12
16 4.12
17 4.12
18 4.12
19 4.12
20 4.12
21 4.12
00 5.12
03 5.12
04 5.12
05 5.12
06 5.12
07 5.12
08 5.12
09 5.12
10 5.12
11 5.12
12 5.12
13 5.12
14 5.12
15 5.12
16 5.12
17 5.12
18 5.12
19 5.12
20 5.12
21 5.12
00 6.12
03 6.12
04 6.12
05 6.12
Ветер
(напр.,м/с)
Видим. Явления Облачность Т
(С)
Тd
(С)
f
(%)
Тe
(С)
Тes
(С)
Комфортность P
(гПа)
Po
(гПа)
Тmin
(С)
Tmax
(С)
R
(мм)
R24
(мм)
S
(см)
СВ 1 20 км 8/8 600 м
[Cu Sc]
+14.3 +13.1 92 +15 +15 тепло 1009.2 1008.5
В 1 20 км 3/3 300 м
[Cu Sc]
+14.5 +13.5 94 +15 +16 тепло 1009.8 1009.1
ЮВ 1 20 км 3/3 300 м
[Cu Sc]
+16.8 +14.3 85 +18 +19 тепло 1010.2 1009.5
ЮВ 1 20 км 4/3 600 м
[Cu Sc Ci]
+17.0 +13.5 80 +18 +20 тепло 1010.3 1009.6
ЮЗ 1 20 км 5/3 600 м
[Cu Sc Ac und Ci fib]
+17.4 +12.0 71 +18 +21 тепло 1010.1 1009.4
ЮЗ 1 20 км 8/8 600 м
[Cu Sc]
+16.8 +11.7 72 +18 +18 тепло 1010.1 1009.4 0.9
Ю 1 20 км 8/8 600 м
[Cu Sc]
+16.7 +10.2 65 +18 +18 тепло 1009.6 1008.9
н/о н/о +14.2 +11.4 83 1009.9 1009.2
н/о н/о +14.7 +11.7 82 1009.6 1008.9
н/о н/о +15.3 +11.4 78 1009.7 1009.0
н/о н/о +14.9 +11.7 81 1009.4 1008.7
Ю 6 20 км гроза, ливневой дождь 10/10 300 м
[Cb cap]
+15.0 +13.3 90 +13 +13 тепло 1009.1 1008.4 +17.6 2
Ю 3 20 км гроза, ливневой дождь 10/10 300 м
[Cb cap]
+15.3 +12.6 84 +15 +15 тепло 1009.1 1008.4
С 3 10 км сильн. гроза, ливневой дождь 10/10 300 м
[Cb cap]
+11.9 +10.4 91 +10 +10 тепло 1009.8 1009.1
н/о н/о +10.1 +8.9 92 1011.0 1010.3
н/о н/о +11.6 +8.0 79 1012.0 1011.3
В 2 20 км {дождь} 3/3 1000 м
[Cu Sc]
+8.8 +8.2 96 +7 +7 тепло 1013.3 1012.6
В 2 20 км {дождь} 3/3 1000 м
[Cu Sc]
+8.6 +7.8 95 +7 +7 тепло 1013.8 1013.1
В 1 20 км {дождь} 1/1 1000 м
[Sc]
+9.0 +8.0 93 +8 +8 тепло 1014.6 1013.9
В 2 20 км {дождь} 3/3 600 м
[Cu med, cong]
+9.2 +8.2 93 +7 +7 тепло 1015.6 1014.9 +8.5 11 13.0
В 2 20 км 3/3 600 м
[Cu med, cong]
+9.4 +8.2 92 +8 +8 тепло 1016.0 1015.3
В 1 20 км 3/3 600 м
[Cu med, cong]
+11.7 +8.5 81 +12 +12 тепло 1016.9 1016.2
В 2 20 км 3/3 600 м
[Cu med, cong]
+13.2 +7.7 69 +13 +14 тепло 1017.5 1016.8
СВ 2 20 км 3/3 600 м
[Cu med, cong]
+14.6 +5.7 55 +14 +17 тепло 1018.2 1017.5
С 2 20 км 3/3 600 м
[Cu Sc]
+15.0 +5.2 52 +15 +17 тепло 1018.2 1017.5
В 2 20 км 3/3 1000 м
[Cu Sc]
+15.6 +4.1 46 +16 +18 тепло 1018.2 1017.5 13.0
В 1 20 км 3/3 1000 м
[Cu Sc]
+15.6 +3.8 45 +16 +18 тепло 1018.4 1017.7
н/о н/о +13.2 +2.8 49 1019.4 1018.7
н/о н/о +12.6 +1.6 47 1019.4 1018.7
н/о н/о +10.6 +0.7 50 1019.9 1019.2
н/о н/о +9.5 -0.1 51 1020.6 1019.9
В 2 20 км 3/3 600 м
[Cu Sc Ac trans]
+9.2 +1.2 57 +8 +8 тепло 1020.9 1020.2 +16.0
В 3 20 км 4/3 600 м
[Cu Sc Ac trans Ci]
+9.1 +0.2 54 +7 +7 тепло 1021.0 1020.3
В 2 20 км 3/1 600 м
[Cu hum Ac trans Ci fib]
+9.1 +0.2 54 +8 +8 тепло 1021.6 1020.9
н/о н/о +9.0 -2.3 45 1022.0 1021.3
н/о н/о +8.1 -2.2 48 1022.4 1021.7
В 2 20 км ясно +8.3 +0.8 59 +7 +7 тепло 1021.8 1021.1
ЮВ 3 20 км 1/0
[Ac und]
+8.5 +1.1 60 +6 +6 тепло 1021.8 1021.1
В 2 20 км 1/0
[Ac trans]
+7.4 -0.1 59 +6 +6 тепло 1021.9 1021.2
В 2 20 км 3/0
[Ac trans Ci]
+7.4 +0.5 62 +6 +6 тепло 1022.0 1021.3 +7.1
В 2 20 км 5/1 1500 м
[Sc Ac trans Cs]
+7.4 +1.0 64 +6 +6 тепло 1022.3 1021.6
ЮВ 3 20 км 8/4 600 м
[Cu Sc Ac und Cs]
+9.2 +1.2 57 +7 +7 тепло 1022.6 1021.9
В 3 20 км 9/4 600 м
[Cu Sc Ac trans Cs]
+10.6 +1.9 55 +9 +10 тепло 1022.6 1021.9
В 3 20 км 9/3 600 м
[Cu Sc Ac trans Cs]
+12.0 +2.7 53 +11 +12 тепло 1022.3 1021.6
ЮВ 4 20 км 9/3 600 м
[Cu Sc Ac und Cs]
+13.8 +4.4 53 +13 +13 тепло 1021.6 1020.9
ЮВ 5 20 км 9/8 600 м
[Cu Sc Ac trans Ci fib]
+13.9 +7.3 64 +12 +12 тепло 1021.1 1020.4
ЮВ 5 20 км 9/5 600 м
[Cu Sc Ac und Ci sp]
+13.8 +7.2 64 +12 +12 тепло 1020.6 1019.9
н/о н/о +13.3 +5.5 59 1021.0 1020.3
н/о н/о +13.0 +7.1 67 1020.7 1020.0
н/о н/о +12.9 +7.2 68 1020.5 1019.8
н/о н/о +12.2 +6.3 67 1020.4 1019.7
В 5 20 км 9/5 600 м
[Cu Sc Ac As]
+12.2 +8.5 78 +10 +10 тепло 1020.0 1019.3 +13.9
В 5 20 км 9/5 600 м
[Cu Sc Ac As]
+11.1 +7.6 79 +8 +8 тепло 1019.9 1019.2
В 4 20 км 9/5 600 м
[Cu Sc Ac As]
+11.1 +7.0 76 +9 +9 тепло 1019.9 1019.2
н/о н/о +11.4 +3.2 57 1020.1 1019.4
н/о н/о +12.5 +5.9 64 1018.7 1018.0
В 6 20 км 9/5 600 м
[Cu Sc Ac As]
+13.1 +11.5 90 +11 +11 тепло 1017.1 1016.4
В 6 20 км 9/5 600 м
[Cu Sc Ac As]
+13.1 +12.0 93 +11 +11 тепло 1016.5 1015.8
В 5 20 км слаб. дождь 10/6 600 м
[Cu Sc Ac As]
+12.8 +11.9 94 +10 +10 тепло 1016.3 1015.6
ЮВ 7 15 км слаб. дождь 10/6 600 м
[Cu Sc Ac As]
+13.2 +12.5 96 +10 +10 тепло 1015.8 1015.1 +11.0 0.0 0.0
ЮВ 7 20 км слаб. дождь 10/6 600 м
[Cu Sc Ac As]
+13.5 +13.0 97 +11 +11 тепло 1015.5 1014.8
ЮВ 7 20 км слаб. дождь 10/8 300 м
[Cu Sc Ac As]
+14.0 +13.3 96 +12 +12 тепло 1015.4 1014.7
В 6 20 км слаб. дождь 10/8 300 м
[Cu Sc Ac As]
+14.5 +13.6 94 +13 +13 тепло 1015.5 1014.8
ЮВ 6 20 км слаб. дождь 10/8 300 м
[Cu Sc Ac As]
+15.5 +14.8 96 +14 +14 тепло 1015.7 1015.0
ЮВ 9 20 км слаб. дождь 10/8 300 м
[Cu Sc Ac As]
+16.8 +15.5 92 +15 +15 тепло 1015.5 1014.8
ЮВ 9 20 км в посл. час дождь 10/8 300 м
[Cu Sc Ac As]
+16.8 +15.3 91 +15 +15 тепло 1015.0 1014.3 0.0 0.0
ЮВ 8 20 км слаб. дождь 10/8 300 м
[Cu Sc Ac As]
+16.8 +15.8 94 +15 +15 тепло 1014.7 1014.0
н/о н/о +16.6 +13.0 79 1014.6 1013.9
н/о н/о +13.0 +12.3 96 1015.4 1014.7
н/о н/о +12.4 +11.9 97 1015.3 1014.6
н/о н/о +12.3 +11.3 94 1015.9 1015.2
СВ 4 20 км слаб. дождь {гроза} 10/6 600 м
[Cu Sc As op]
+10.8 +9.1 89 +8 +8 тепло 1016.0 1015.3 +16.8 18
СВ 2 15 км дождь 10/6 600 м
[Frnb As op]
+9.6 +8.4 92 +8 +8 тепло 1017.3 1016.6
СВ 2 15 км слаб. дождь 10/6 300 м
[Frnb As op]
+9.0 +8.0 93 +7 +7 тепло 1017.0 1016.3
н/о н/о +9.0 +5.8 80 1017.4 1016.7
н/о н/о +8.3 +4.6 77 1018.6 1017.9
СВ 1 20 км {дождь} 8/4 600 м
[Cu Sc Ac As]
+8.2 +4.9 80 +8 +8 тепло 1018.9 1018.2
С 1 20 км {дождь} 6/3 600 м
[Cu Sc Ac trans Ci sp]
+7.5 +5.6 88 +7 +7 тепло 1019.3 1018.6
В 1 20 км {дождь} 4/3 600 м
[Cu Sc Ac trans]
+7.1 +3.7 79 +6 +6 тепло 1019.3 1018.6
С 1 20 км {дождь} 5/3 600 м
[Cu Sc Ac trans Ci sp]
+6.5 +2.8 77 +6 +6 тепло 1019.8 1019.1 +6.5 4 21.9
СВ 1 20 км 3/1 1000 м
[Sc Ac trans Ci sp]
+6.0 +1.4 72 +5 +5 тепло 1020.3 1019.6
В 1 20 км 3/1 1000 м
[Sc Ac trans Ci sp]
+7.9 +0.3 59 +8 +8 тепло 1021.2 1020.5
З 2 20 км 4/1 1000 м
[Sc Ac trans Ci sp]
+9.8 +1.4 56 +9 +10 тепло 1021.6 1020.9
ЮЗ 1 20 км 4/1 1000 м
[Sc Ac trans Ci sp]
+12.0 +2.5 52 +12 +15 тепло 1022.1 1021.4
ЮВ 1 20 км 4/1 1000 м
[Sc Ac trans Ci sp]
+12.2 +1.4 48 +13 +16 тепло 1021.5 1020.8
С 3 20 км 3/1 1000 м
[Sc Ci sp]
+11.6 +1.1 48 +10 +12 тепло 1021.2 1020.5 21.9
С 3 20 км 3/1 1000 м
[Sc Ci sp]
+12.0 +0.8 46 +11 +12 тепло 1021.0 1020.3
н/о н/о +11.1 -1.9 40 1021.9 1021.2
н/о н/о +8.7 -1.7 48 1022.4 1021.7
н/о н/о +6.7 -2.7 51 1022.8 1022.1
н/о н/о +5.7 -3.1 53 1023.6 1022.8
В 1 20 км ясно +5.7 -1.4 60 +5 +5 тепло 1023.3 1022.6 +12.2
В 2 20 км ясно +5.8 -1.9 58 +4 +4 по сезону 1023.6 1022.9
В 2 20 км ясно +5.5 -1.7 60 +3 +3 по сезону 1024.2 1023.5
н/о н/о +4.6 -4.4 52 1025.4 1024.6
н/о н/о +4.4 -2.6 60 1025.2 1024.4
В 2 20 км ясно +3.4 -1.7 69 +1 +1 по сезону 1023.5 1022.8
н/о н/о +4.0 -5.7 49 1024.4 1023.6
СВ 2 20 км ясно +3.3 -6.1 50 +2 +2 по сезону 1024.5 1023.7
В 2 20 км ясно +2.8 -3.6 63 0 0 по сезону 1024.6 1023.9 +2.8
В 1 20 км ясно +3.8 -2.4 64 +3 +3 по сезону 1025.1 1024.4
В 1 20 км ясно +7.0 -1.8 53 +7 +8 тепло 1025.1 1024.4
СВ 1 20 км ясно +9.3 -2.0 45 +9 +12 тепло 1025.4 1024.7
ЮВ 1 20 км ясно +10.2 -1.6 44 +10 +14 тепло 1025.0 1024.3
Ю 1 20 км ясно +10.7 -0.5 46 +11 +15 тепло 1024.2 1023.5
Ю 1 20 км ясно +11.2 -1.3 42 +11 +15 тепло 1023.4 1022.7
Ю 1 20 км ясно +12.0 -1.7 38 +12 +15 тепло 1022.8 1022.1
н/о н/о +11.7 -3.6 34 1022.9 1022.2
н/о н/о +10.1 -3.5 38 1022.9 1022.2
н/о н/о +7.4 -2.8 48 1023.1 1022.4
н/о н/о +7.3 -4.7 42 1023.4 1022.7
В 2 20 км ясно +6.9 -1.3 56 +5 +5 тепло 1023.0 1022.3 +12.1
В 2 20 км ясно +6.0 -0.7 62 +4 +4 по сезону 1023.1 1022.4
В 1 20 км ясно +5.9 +0.5 68 +5 +5 тепло 1023.4 1022.7
н/о н/о +5.4 -4.4 49 1024.0 1023.2
н/о н/о +4.7 -4.8 50 1025.3 1024.5
ЮВ 3 20 км ясно +5.1 +1.9 80 +2 +2 по сезону 1024.9 1024.2
ЮВ 3 20 км ясно +4.6 +1.3 79 +1 +1 по сезону 1024.9 1024.2
В 3 20 км ясно +4.6 0.0 72 +1 +1 по сезону 1025.1 1024.4
В 2 20 км ясно +4.2 -0.4 72 +2 +2 по сезону 1025.7 1025.0 +4.2
ЮВ 2 20 км ясно +5.0 +1.3 77 +3 +3 по сезону 1025.8 1025.1
ЮВ 2 20 км ясно +7.0 +2.3 72 +5 +6 тепло 1026.0 1025.3
ЮВ 1 20 км 3/1 1500 м
[Sc Ac und Ci]
+10.1 +2.6 60 +10 +12 тепло 1026.5 1025.8
В 1 20 км 4/3 600 м
[Sc Ac trans Ci fib]
+11.8 +2.4 52 +12 +14 тепло 1026.8 1026.1
В 1 20 км 3/3 600 м
[Sc Ac trans]
+12.8 +4.0 55 +13 +16 тепло 1026.4 1025.7
В 2 20 км 3/3 600 м
[Sc Ac trans]
+13.2 +4.1 54 +13 +15 тепло 1025.9 1025.2
В 2 20 км 3/3 600 м
[Sc Ac trans]
+13.1 +5.6 60 +13 +14 тепло 1025.8 1025.1
н/о н/о +13.5 +3.9 52 1026.0 1025.3
н/о н/о +11.3 +3.1 57 1026.1 1025.4
н/о н/о +10.8 +3.6 61 1026.0 1025.3
н/о н/о +10.8 +2.9 58 1026.0 1025.3
СВ 2 20 км 9/9 600 м
[Cu Sc]
+10.8 +5.8 71 +10 +10 тепло 1025.8 1025.1 +14.0
В 2 20 км 8/8 1000 м
[Cu Sc]
+10.6 +5.6 71 +9 +9 тепло 1025.9 1025.2
В 2 20 км 9/9 1000 м
[Cu Sc]
+10.6 +5.8 72 +9 +9 тепло 1026.2 1025.5
н/о н/о +10.7 +2.8 58 1026.8 1026.1
н/о н/о +10.3 +3.8 64 1026.2 1025.5
В 2 20 км 8/8 1000 м
[Sc]
+9.9 +6.7 80 +8 +8 тепло 1025.6 1024.9
В 2 20 км 8/8 1000 м
[Sc]
+9.8 +6.4 79 +8 +8 тепло 1025.3 1024.6
В 2 20 км 9/9 1000 м
[Cu Sc]
+10.0 +6.4 78 +9 +9 тепло 1025.3 1024.6
Местоположение метеостанции Задар (Хорватия): широта 44.13 долгота 15.22 высота над уровнем моря 7 м.
В архиве по умолчанию представлена погода в Задаре за последнюю неделю. Архивные данные за месяц целиком и за предыдущие месяцы, начиная с января 2011 года, Вы можете получить, выбрав интересующий диапазон дат из раскрывающегося списка и нажав кнопку "Найти!".
*Определитесь, кто Вы:
Внимание! Время в таблицах - всемирное. Для получения местного времени необходимо прибавить поправку, которая равна 1 ч.
Смотрите также архив погоды в соседних городах и на ближайших метеорологических станциях:
Партнеры нашего сайта:      
Пояснения к столбцам:
  • Ветер - указаны скорость ветра в м/с - средняя за 10 мин, порывы в срок и между сроками (в фигурных скобках) и направление, откуда дует ветер: С - северный,
  • СВ - северо-восточный, В - восточный, ЮВ - юго-восточный, Ю - южный, ЮЗ - юго-западный, З - западный, СЗ - северо-западный.
  • Видимость - горизонтальная дальность видимости в метрах или километрах. При видимости от 1 до 10 км при отсутствии осадков обычно наблюдается дымка, при ухудшении видимости до 1 км и менее - туман. В сухую погоду видимость может ухудшаться дымом, пылью или мглою.
  • Явления - указаны атмосферные явления, наблюдавшиеся в срок или в последний час перед сроком; фигурными скобками обозначены явления, наблюдавшиеся между сроками (за 1-3 часа до срока); квадратными скобками обозначены град или гололедные отложения с указанием их диаметра в мм.
  • Облачность - указаны через наклонную черту общая и нижняя облачность в баллах и высота нижней границы облаков в метрах; квадратными скобками обозначены формы облаков: Ci - перистые, Cs - перисто-слоистые, Cc - перисто-кучевые, Ac - высококучевые, As - высокослоистые, Sc - слоисто-кучевые, Ns - слоисто-дождевые, Cu - кучевые, Cb - кучево-дождевые. Подробнее классификацию облаков см. в Атласе облаков (PDF).
  • T - Температура воздуха - температура, измеренная на высоте 2 м над землей.
  • Td - Температура точки росы - температура, при понижении до которой содержащийся в воздухе водяной пар достигнет насыщения.
  • f - Относительная влажность воздуха - влажноcть воздуха, измеренная на высоте 2 м над землей.
  • Te - Эффективная температура - температура, которую ощущает одетый по сезону человек в тени. Характеристика душности погоды. При расчете учитывается влияние влажности воздуха и скорости ветра на теплоощущения человека.
  • Tes - Эффективная температура на солнце - температура, которую ощущает человек, с поправкой на солнечный нагрев. Характеристика знойности погоды. Зависит от высоты солнца над горизонтом, облачности и скорости ветра. Ночью, в пасмурную погоду, а также при ветре 12 м/с и более поправка равна нулю.
  • P - Атмосферное давление - приведенное к уровню моря атмосферное давление.
  • Po - Атмосферное давление - измеренное на уровне метеостанции атмосферное давление.
  • Tmin - Минимальная температура - минимум температуры воздуха на высоте 2 м над землей.
  • Tmax - Максимальная температура - максимум температуры воздуха на высоте 2 м над землей.
  • R - Количество осадков - Количество выпавших осадков за период времени, мм. При наведении курсора мыши на число - период времени, за который выпало указанное количество осадков.
  • R24 - Количество осадков - Количество выпавших осадков за 24 часа, мм.
  • S - Снежный покров - Высота снежного покрова, см. При наведении курсора мыши на число - состояние снежного покрова и степень покрытия местности в баллах.